Time,TemperatureF,DewpointF,PressureIn,WindDirection,WindDirectionDegrees,WindSpeedMPH,WindSpeedGustMPH,Humidity,HourlyPrecipIn,Conditions,Clouds,dailyrainin,SoftwareType,DateUTC
2013-04-05 00:02:00,20.0,18.0,-100.00,NNW,345,9.0,-999.0,93,-99.99,,,-99.99,,2013-04-05 05:02:00,
2013-04-05 00:12:00,19.0,17.0,-100.00,NNW,345,10.0,-999.0,93,-99.99,,,-99.99,,2013-04-05 05:12:00,
2013-04-05 00:22:00,18.0,17.0,-100.00,North,0,10.0,-999.0,94,-99.99,,,-99.99,,2013-04-05 05:22:00,
2013-04-05 00:32:00,18.0,17.0,-100.00,North,6,9.0,-999.0,94,-99.99,,,-99.99,,2013-04-05 05:32:00,
2013-04-05 00:42:00,18.0,17.0,-100.00,North,3,10.0,-999.0,94,-99.99,,,-99.99,,2013-04-05 05:42:00,
2013-04-05 00:52:00,18.0,17.0,-100.00,North,3,8.0,-999.0,94,-99.99,,,-99.99,,2013-04-05 05:52:00,
2013-04-05 01:02:00,18.0,16.0,-100.00,East,87,8.0,-999.0,94,-99.99,,,-99.99,,2013-04-05 06:02:00,
2013-04-05 01:12:00,18.0,17.0,-100.00,North,6,9.0,-999.0,94,-99.99,,,-99.99,,2013-04-05 06:12:00,
2013-04-05 01:22:00,18.0,17.0,-100.00,North,4,8.0,-999.0,93,-99.99,,,-99.99,,2013-04-05 06:22:00,
2013-04-05 01:32:00,18.0,17.0,-100.00,North,4,8.0,-999.0,93,-99.99,,,-99.99,,2013-04-05 06:32:00,
2013-04-05 01:42:00,18.0,17.0,-100.00,North,4,8.0,-999.0,93,-99.99,,,-99.99,,2013-04-05 06:42:00,
2013-04-05 01:52:00,18.0,16.0,-100.00,South,172,8.0,-999.0,92,-99.99,,,-99.99,,2013-04-05 06:52:00,
2013-04-05 02:02:00,18.0,16.0,-100.00,WSW,258,9.0,-999.0,91,-99.99,,,-99.99,,2013-04-05 07:02:00,
2013-04-05 02:12:00,18.0,16.0,-100.00,South,172,6.0,-999.0,91,-99.99,,,-99.99,,2013-04-05 07:12:00,
2013-04-05 02:22:00,18.0,16.0,-100.00,NNW,343,6.0,-999.0,92,-99.99,,,-99.99,,2013-04-05 07:22:00,
2013-04-05 02:32:00,19.0,17.0,-100.00,NNW,343,6.0,-999.0,92,-99.99,,,-99.99,,2013-04-05 07:32:00,
2013-04-05 02:42:00,17.0,15.0,-100.00,NNW,345,9.0,-999.0,91,-99.99,,,-99.99,,2013-04-05 07:42:00,
2013-04-05 02:52:00,17.0,14.0,-100.00,East,91,10.0,-999.0,90,-99.99,,,-99.99,,2013-04-05 07:52:00,
2013-04-05 03:02:00,17.0,14.0,-100.00,North,2,10.0,-999.0,90,-99.99,,,-99.99,,2013-04-05 08:02:00,
2013-04-05 03:13:00,16.0,14.0,-100.00,North,2,10.0,-999.0,91,-99.99,,,-99.99,,2013-04-05 08:13:00,
2013-04-05 03:22:00,16.0,14.0,-100.00,North,3,7.0,-999.0,91,-99.99,,,-99.99,,2013-04-05 08:22:00,
2013-04-05 03:32:00,17.0,14.0,-100.00,North,6,9.0,-999.0,90,-99.99,,,-99.99,,2013-04-05 08:32:00,
2013-04-05 03:43:00,17.0,14.0,-100.00,North,3,7.0,-999.0,90,-99.99,,,-99.99,,2013-04-05 08:43:00,
2013-04-05 03:52:00,17.0,14.0,-100.00,NNE,15,8.0,-999.0,90,-99.99,,,-99.99,,2013-04-05 08:52:00,
2013-04-05 04:02:00,17.0,14.0,-100.00,NNE,19,7.0,-999.0,89,-99.99,,,-99.99,,2013-04-05 09:02:00,
2013-04-05 04:12:00,16.0,13.0,-100.00,NNE,13,6.0,-999.0,89,-99.99,,,-99.99,,2013-04-05 09:12:00,
2013-04-05 04:22:00,16.0,14.0,-100.00,NNE,12,6.0,-999.0,90,-99.99,,,-99.99,,2013-04-05 09:22:00,
2013-04-05 04:33:00,16.0,14.0,-100.00,NNE,12,6.0,-999.0,90,-99.99,,,-99.99,,2013-04-05 09:33:00,
2013-04-05 04:43:00,15.0,13.0,-100.00,North,11,4.0,-999.0,91,-99.99,,,-99.99,,2013-04-05 09:43:00,
2013-04-05 04:53:00,15.0,13.0,-100.00,North,9,3.0,-999.0,91,-99.99,,,-99.99,,2013-04-05 09:53:00,
2013-04-05 05:03:00,15.0,13.0,-100.00,NNE,15,2.0,-999.0,91,-99.99,,,-99.99,,2013-04-05 10:03:00,
2013-04-05 05:13:00,16.0,14.0,-100.00,NNE,16,4.0,-999.0,91,-99.99,,,-99.99,,2013-04-05 10:13:00,
2013-04-05 05:23:00,16.0,13.0,-100.00,NNE,23,5.0,-999.0,91,-99.99,,,-99.99,,2013-04-05 10:23:00,
2013-04-05 05:33:00,16.0,14.0,-100.00,NNE,33,7.0,-999.0,91,-99.99,,,-99.99,,2013-04-05 10:33:00,
2013-04-05 05:43:00,15.0,14.0,-100.00,NE,36,8.0,-999.0,92,-99.99,,,-99.99,,2013-04-05 10:43:00,
2013-04-05 05:52:00,15.0,14.0,-100.00,NNE,32,8.0,-999.0,92,-99.99,,,-99.99,,2013-04-05 10:52:00,
2013-04-05 06:02:00,15.0,14.0,-100.00,NE,40,8.0,-999.0,93,-99.99,,,-99.99,,2013-04-05 11:02:00,
2013-04-05 06:13:00,15.0,14.0,-100.00,NE,49,6.0,-999.0,93,-99.99,,,-99.99,,2013-04-05 11:13:00,
2013-04-05 06:22:00,15.0,14.0,-100.00,NE,41,7.0,-999.0,94,-99.99,,,-99.99,,2013-04-05 11:22:00,
2013-04-05 06:33:00,15.0,13.0,-100.00,NE,47,8.0,-999.0,94,-99.99,,,-99.99,,2013-04-05 11:33:00,
2013-04-05 06:42:00,15.0,13.0,-100.00,NE,51,9.0,-999.0,94,-99.99,,,-99.99,,2013-04-05 11:42:00,
2013-04-05 06:52:00,15.0,14.0,-100.00,NE,54,7.0,-999.0,95,-99.99,,,-99.99,,2013-04-05 11:52:00,
2013-04-05 07:02:00,15.0,13.0,-100.00,ENE,65,6.0,-999.0,95,-99.99,,,-99.99,,2013-04-05 12:02:00,
2013-04-05 07:12:00,14.0,13.0,-100.00,ENE,69,7.0,-999.0,95,-99.99,,,-99.99,,2013-04-05 12:12:00,
2013-04-05 07:22:00,14.0,13.0,-100.00,ENE,74,6.0,-999.0,95,-99.99,,,-99.99,,2013-04-05 12:22:00,
2013-04-05 07:32:00,15.0,13.0,-100.00,East,82,5.0,-999.0,95,-99.99,,,-99.99,,2013-04-05 12:32:00,
2013-04-05 07:42:00,15.0,13.0,-100.00,East,82,5.0,-999.0,95,-99.99,,,-99.99,,2013-04-05 12:42:00,
2013-04-05 07:52:00,16.0,15.0,-100.00,SE,125,3.0,-999.0,95,-99.99,,,-99.99,,2013-04-05 12:52:00,
2013-04-05 08:02:00,16.0,14.0,-100.00,ESE,120,3.0,-999.0,94,-99.99,,,-99.99,,2013-04-05 13:02:00,
2013-04-05 08:12:00,17.0,15.0,-100.00,ESE,105,4.0,-999.0,94,-99.99,,,-99.99,,2013-04-05 13:12:00,
2013-04-05 08:23:00,17.0,15.0,-100.00,East,96,5.0,-999.0,93,-99.99,,,-99.99,,2013-04-05 13:23:00,
2013-04-05 08:32:00,18.0,16.0,-100.00,SE,125,6.0,-999.0,93,-99.99,,,-99.99,,2013-04-05 13:32:00,
2013-04-05 08:42:00,18.0,17.0,-100.00,ESE,119,5.0,-999.0,92,-99.99,,,-99.99,,2013-04-05 13:42:00,
2013-04-05 08:52:00,19.0,17.0,-100.00,ESE,119,6.0,-999.0,92,-99.99,,,-99.99,,2013-04-05 13:52:00,
2013-04-05 09:03:00,20.0,18.0,-100.00,ESE,118,7.0,-999.0,92,-99.99,,,-99.99,,2013-04-05 14:03:00,
2013-04-05 09:12:00,20.0,18.0,-100.00,ESE,117,8.0,-999.0,91,-99.99,,,-99.99,,2013-04-05 14:12:00,
2013-04-05 09:23:00,21.0,18.0,-100.00,ESE,105,10.0,-999.0,91,-99.99,,,-99.99,,2013-04-05 14:23:00,
2013-04-05 09:36:00,21.0,19.0,-100.00,SE,125,10.0,-999.0,91,-99.99,,,-99.99,,2013-04-05 14:36:00,
2013-04-05 09:43:00,22.0,19.0,-100.00,SE,131,11.0,-999.0,90,-99.99,,,-99.99,,2013-04-05 14:43:00,
2013-04-05 09:52:00,23.0,20.0,-100.00,ESE,117,12.0,-999.0,90,-99.99,,,-99.99,,2013-04-05 14:52:00,
2013-04-05 10:02:00,23.0,21.0,-100.00,ESE,117,14.0,-999.0,90,-99.99,,,-99.99,,2013-04-05 15:02:00,
2013-04-05 10:12:00,24.0,21.0,-100.00,ESE,115,14.0,-999.0,90,-99.99,,,-99.99,,2013-04-05 15:12:00,
2013-04-05 10:23:00,25.0,22.0,-100.00,ESE,121,13.0,-999.0,89,-99.99,,,-99.99,,2013-04-05 15:23:00,
2013-04-05 10:33:00,26.0,22.0,-100.00,ESE,113,14.0,-999.0,88,-99.99,,,-99.99,,2013-04-05 15:33:00,
2013-04-05 10:43:00,27.0,23.0,-100.00,ESE,123,14.0,-999.0,86,-99.99,,,-99.99,,2013-04-05 15:43:00,
2013-04-05 10:53:00,27.0,22.0,-100.00,SE,134,16.0,-999.0,81,-99.99,,,-99.99,,2013-04-05 15:53:00,
2013-04-05 11:02:00,27.0,22.0,-100.00,SE,131,18.0,-999.0,81,-99.99,,,-99.99,,2013-04-05 16:02:00,
2013-04-05 11:13:00,27.0,22.0,-100.00,SE,131,16.0,-999.0,82,-99.99,,,-99.99,,2013-04-05 16:13:00,
2013-04-05 11:23:00,27.0,22.0,-100.00,SE,133,19.0,-999.0,81,-99.99,,,-99.99,,2013-04-05 16:23:00,
2013-04-05 11:33:00,27.0,22.0,-100.00,SE,135,14.0,-999.0,81,-99.99,,,-99.99,,2013-04-05 16:33:00,
2013-04-05 11:42:00,27.0,22.0,-100.00,SE,140,20.0,-999.0,81,-99.99,,,-99.99,,2013-04-05 16:42:00,
2013-04-05 11:52:00,27.0,23.0,-100.00,SE,136,19.0,-999.0,84,-99.99,,,-99.99,,2013-04-05 16:52:00,
2013-04-05 12:03:00,27.0,24.0,-100.00,SE,142,22.0,-999.0,89,-99.99,,,-99.99,,2013-04-05 17:03:00,
2013-04-05 12:13:00,27.0,25.0,-100.00,SE,146,21.0,-999.0,92,-99.99,,,-99.99,,2013-04-05 17:13:00,
2013-04-05 12:23:00,27.0,26.0,-100.00,SE,134,18.0,-999.0,94,-99.99,,,-99.99,,2013-04-05 17:23:00,
2013-04-05 12:32:00,28.0,26.0,-100.00,SE,137,20.0,-999.0,95,-99.99,,,-99.99,,2013-04-05 17:32:00,
2013-04-05 12:45:00,28.0,26.0,-100.00,SE,140,21.0,-999.0,95,-99.99,,,-99.99,,2013-04-05 17:45:00,
2013-04-05 12:52:00,28.0,27.0,-100.00,SE,127,16.0,-999.0,95,-99.99,,,-99.99,,2013-04-05 17:52:00,
2013-04-05 13:02:00,28.0,26.0,-100.00,SE,132,26.0,-999.0,93,-99.99,,,-99.99,,2013-04-05 18:02:00,
2013-04-05 13:12:00,29.0,27.0,-100.00,SE,139,23.0,-999.0,92,-99.99,,,-99.99,,2013-04-05 18:12:00,
2013-04-05 13:22:00,29.0,27.0,-100.00,SE,124,19.0,-999.0,91,-99.99,,,-99.99,,2013-04-05 18:22:00,
2013-04-05 13:33:00,29.0,27.0,-100.00,SE,126,22.0,-999.0,90,-99.99,,,-99.99,,2013-04-05 18:33:00,
2013-04-05 13:43:00,29.0,26.0,-100.00,ESE,113,18.0,-999.0,88,-99.99,,,-99.99,,2013-04-05 18:43:00,
2013-04-05 13:52:00,30.0,27.0,-100.00,ESE,117,23.0,-999.0,88,-99.99,,,-99.99,,2013-04-05 18:52:00,
2013-04-05 14:02:00,29.0,26.0,-100.00,ESE,121,23.0,-999.0,88,-99.99,,,-99.99,,2013-04-05 19:02:00,
2013-04-05 14:13:00,30.0,27.0,-100.00,ESE,111,25.0,-999.0,88,-99.99,,,-99.99,,2013-04-05 19:13:00,
2013-04-05 14:23:00,30.0,27.0,-100.00,ESE,109,30.0,-999.0,87,-99.99,,,-99.99,,2013-04-05 19:23:00,
2013-04-05 14:33:00,30.0,27.0,-100.00,ESE,114,17.0,-999.0,87,-99.99,,,-99.99,,2013-04-05 19:33:00,
2013-04-05 14:42:00,30.0,27.0,-100.00,ESE,111,24.0,-999.0,88,-99.99,,,-99.99,,2013-04-05 19:42:00,
2013-04-05 14:52:00,31.0,27.0,-100.00,East,94,17.0,-999.0,88,-99.99,,,-99.99,,2013-04-05 19:52:00,
2013-04-05 15:02:00,31.0,28.0,-100.00,ESE,114,22.0,-999.0,86,-99.99,,,-99.99,,2013-04-05 20:02:00,
2013-04-05 15:11:00,31.0,28.0,-100.00,ESE,121,18.0,-999.0,87,-99.99,,,-99.99,,2013-04-05 20:11:00,
2013-04-05 15:22:00,31.0,28.0,-100.00,ESE,109,25.0,-999.0,87,-99.99,,,-99.99,,2013-04-05 20:22:00,
2013-04-05 15:32:00,31.0,28.0,-100.00,ESE,112,30.0,-999.0,88,-99.99,,,-99.99,,2013-04-05 20:32:00,
2013-04-05 15:42:00,31.0,28.0,-100.00,ESE,112,30.0,-999.0,88,-99.99,,,-99.99,,2013-04-05 20:42:00,
2013-04-05 15:52:00,32.0,29.0,-100.00,ESE,107,29.0,-999.0,88,-99.99,,,-99.99,,2013-04-05 20:52:00,
2013-04-05 16:02:00,32.0,29.0,-100.00,ESE,107,24.0,-999.0,88,-99.99,,,-99.99,,2013-04-05 21:02:00,
2013-04-05 16:13:00,32.0,29.0,-100.00,ESE,114,26.0,-999.0,88,-99.99,,,-99.99,,2013-04-05 21:13:00,
2013-04-05 16:23:00,32.0,29.0,-100.00,East,96,21.0,-999.0,88,-99.99,,,-99.99,,2013-04-05 21:23:00,
2013-04-05 16:33:00,32.0,29.0,-100.00,ESE,117,27.0,-999.0,88,-99.99,,,-99.99,,2013-04-05 21:33:00,
2013-04-05 16:43:00,32.0,29.0,-100.00,ESE,116,29.0,-999.0,88,-99.99,,,-99.99,,2013-04-05 21:43:00,
2013-04-05 16:53:00,33.0,29.0,-100.00,ESE,115,22.0,-999.0,88,-99.99,,,-99.99,,2013-04-05 21:53:00,
2013-04-05 17:03:00,32.0,29.0,-100.00,ESE,111,31.0,-999.0,89,-99.99,,,-99.99,,2013-04-05 22:03:00,
2013-04-05 17:13:00,33.0,29.0,-100.00,ESE,121,23.0,-999.0,87,-99.99,,,-99.99,,2013-04-05 22:13:00,
2013-04-05 17:23:00,33.0,29.0,-100.00,ESE,118,23.0,-999.0,87,-99.99,,,-99.99,,2013-04-05 22:23:00,
2013-04-05 17:33:00,33.0,29.0,-100.00,ESE,114,21.0,-999.0,88,-99.99,,,-99.99,,2013-04-05 22:33:00,
2013-04-05 17:43:00,33.0,29.0,-100.00,ESE,110,25.0,-999.0,87,-99.99,,,-99.99,,2013-04-05 22:43:00,
2013-04-05 17:52:00,34.0,30.0,-100.00,ESE,123,24.0,-999.0,86,-99.99,,,-99.99,,2013-04-05 22:52:00,
2013-04-05 18:03:00,34.0,30.0,-100.00,ESE,123,24.0,-999.0,86,-99.99,,,-99.99,,2013-04-05 23:03:00,
2013-04-05 18:12:00,34.0,30.0,-100.00,ESE,116,23.0,-999.0,86,-99.99,,,-99.99,,2013-04-05 23:12:00,
2013-04-05 18:22:00,33.0,29.0,-100.00,SE,126,28.0,-999.0,86,-99.99,,,-99.99,,2013-04-05 23:22:00,
2013-04-05 18:32:00,33.0,29.0,-100.00,ESE,119,28.0,-999.0,87,-99.99,,,-99.99,,2013-04-05 23:32:00,
2013-04-05 18:42:00,33.0,30.0,-100.00,ESE,118,21.0,-999.0,88,-99.99,,,-99.99,,2013-04-05 23:42:00,
2013-04-05 18:52:00,33.0,30.0,-100.00,ESE,120,27.0,-999.0,89,-99.99,,,-99.99,,2013-04-05 23:52:00,
2013-04-05 19:02:00,33.0,30.0,-100.00,ESE,106,21.0,-999.0,89,-99.99,,,-99.99,,2013-04-06 00:02:00,
2013-04-05 19:13:00,33.0,30.0,-100.00,ESE,111,22.0,-999.0,89,-99.99,,,-99.99,,2013-04-06 00:13:00,
2013-04-05 19:23:00,33.0,30.0,-100.00,ESE,109,19.0,-999.0,89,-99.99,,,-99.99,,2013-04-06 00:23:00,
2013-04-05 19:33:00,33.0,30.0,-100.00,ESE,110,22.0,-999.0,88,-99.99,,,-99.99,,2013-04-06 00:33:00,
2013-04-05 19:42:00,33.0,30.0,-100.00,ESE,110,22.0,-999.0,88,-99.99,,,-99.99,,2013-04-06 00:42:00,
2013-04-05 19:52:00,32.0,29.0,-100.00,ESE,104,25.0,-999.0,89,-99.99,,,-99.99,,2013-04-06 00:52:00,
2013-04-05 20:02:00,32.0,29.0,-100.00,East,95,17.0,-999.0,91,-99.99,,,-99.99,,2013-04-06 01:02:00,
2013-04-05 20:13:00,32.0,30.0,-100.00,East,90,18.0,-999.0,92,-99.99,,,-99.99,,2013-04-06 01:13:00,
2013-04-05 20:22:00,31.0,29.0,-100.00,ESE,116,19.0,-999.0,92,-99.99,,,-99.99,,2013-04-06 01:22:00,
2013-04-05 20:33:00,31.0,30.0,-100.00,East,96,17.0,-999.0,93,-99.99,,,-99.99,,2013-04-06 01:33:00,
2013-04-05 20:43:00,31.0,30.0,-100.00,ESE,103,21.0,-999.0,93,-99.99,,,-99.99,,2013-04-06 01:43:00,
2013-04-05 20:52:00,31.0,30.0,-100.00,ESE,109,23.0,-999.0,94,-99.99,,,-99.99,,2013-04-06 01:52:00,
2013-04-05 21:02:00,31.0,30.0,-100.00,ESE,111,21.0,-999.0,94,-99.99,,,-99.99,,2013-04-06 02:02:00,
2013-04-05 21:12:00,31.0,30.0,-100.00,ESE,109,32.0,-999.0,94,-99.99,,,-99.99,,2013-04-06 02:12:00,
2013-04-05 21:22:00,31.0,29.0,-100.00,East,81,13.0,-999.0,93,-99.99,,,-99.99,,2013-04-06 02:22:00,
2013-04-05 21:32:00,31.0,30.0,-100.00,East,79,14.0,-999.0,93,-99.99,,,-99.99,,2013-04-06 02:32:00,
2013-04-05 21:42:00,31.0,29.0,-100.00,East,90,18.0,-999.0,92,-99.99,,,-99.99,,2013-04-06 02:42:00,
2013-04-05 21:52:00,31.0,29.0,-100.00,East,83,12.0,-999.0,93,-99.99,,,-99.99,,2013-04-06 02:52:00,
2013-04-05 22:02:00,32.0,30.0,-100.00,East,94,19.0,-999.0,93,-99.99,,,-99.99,,2013-04-06 03:02:00,
2013-04-05 22:12:00,31.0,30.0,-100.00,ESE,115,22.0,-999.0,93,-99.99,,,-99.99,,2013-04-06 03:12:00,
2013-04-05 22:22:00,32.0,30.0,-100.00,ESE,102,17.0,-999.0,92,-99.99,,,-99.99,,2013-04-06 03:22:00,
2013-04-05 22:34:00,32.0,30.0,-100.00,ESE,114,22.0,-999.0,91,-99.99,,,-99.99,,2013-04-06 03:34:00,
2013-04-05 22:43:00,32.0,30.0,-100.00,ESE,116,26.0,-999.0,90,-99.99,,,-99.99,,2013-04-06 03:43:00,
2013-04-05 22:53:00,32.0,30.0,-100.00,ESE,114,19.0,-999.0,90,-99.99,,,-99.99,,2013-04-06 03:53:00,
2013-04-05 23:03:00,32.0,30.0,-100.00,SE,124,26.0,-999.0,91,-99.99,,,-99.99,,2013-04-06 04:03:00,
2013-04-05 23:14:00,32.0,30.0,-100.00,ESE,121,24.0,-999.0,91,-99.99,,,-99.99,,2013-04-06 04:14:00,
2013-04-05 23:23:00,32.0,30.0,-100.00,ESE,112,25.0,-999.0,92,-99.99,,,-99.99,,2013-04-06 04:23:00,
2013-04-05 23:33:00,32.0,30.0,-100.00,ESE,109,23.0,-999.0,92,-99.99,,,-99.99,,2013-04-06 04:33:00,
2013-04-05 23:42:00,32.0,30.0,-100.00,ESE,117,21.0,-999.0,93,-99.99,,,-99.99,,2013-04-06 04:42:00,
2013-04-05 23:52:00,32.0,30.0,-100.00,ESE,105,21.0,-999.0,92,-99.99,,,-99.99,,2013-04-06 04:52:00,